STARLINK-35354

Last updated on Tue Dec 16 2025 00:02:05 GMT+0000 (Coordinated Universal Time)

1 66477U 25262X 25349.33335648 .00008496 00000+0 21051-3 0 9993 2 66477 43.0004 56.0006 0001548 276.5311 150.8685 15.40687600 6054
UTC large
Height (km)
Speed (km/s)
/
Latitude / Longitude
Inclination (degrees)
Orbital Period (minutes)
Azimuth
Elevation
Range (km)
Doppler Factor

Next 0 passes for location: London (51.5072 / 0.1276)

Sorry there are no passes over London.